User: anonymous   Login
Location: Frydek-Mistek
(49.6830°N, 18.3330°E)
Time: 09:31:21
(UTC+02:00)
Language:

ISS - Orbit

View from above orbital plane
View from above orbital plane
View from above satellite
View from above satellite

Ground track
Ground track

The orbit data is extracted from the following two-line orbital elements,

1 25544U 98067A   21171.52477565  .00000573  00000-0  18561-4 0  9993
2 25544  51.6439 326.2204 0003431 114.0576 357.2071 15.49003599289115
Epoch (UTC): 20 June 2021 12:35:40
Eccentricity: 0.0003431
inclination: 51.6439°
perigee height: 417 km
apogee height: 422 km
right ascension of ascending node: 326.2204°
argument of perigee: 114.0576°
revolutions per day: 15.49003599
mean anomaly at epoch: 357.2071°
orbit number at epoch: 28911

The dashed part of the orbit path shows where the satellite is in the earth's shadow,  

DLR